Volver al catálogo

METEOR 2-18

ActivoMeteoPO
NORAD 19851·PAYLOAD·🇷🇺 Russia

Lanzado Feb 28, 1989 desde Plesetsk Cosmodrome

Loading…

Próximos Pases (próximas 24 horas)

TLE

ActualizadoSource: Space-Track

Época: Sep 14, 2026, 13:38 UTC

1 19851U 89018A   26257.56873196  .00000044  00000-0  25553-4 0  9999
2 19851  82.5169  97.4358 0011262 236.3333 136.4050 13.86039896898207

Sigue METEOR 2-18 en tiempo real con AllMySat

Download on the App Store